Theta_e
300 298 295 298 299 296 294 294 293 296 296 296 297 297 300 303 303 302 304 305 306 306 309 309 309 308 309 311 311 311 312 315 317 317 316 316 315 315 310 314 315 318 319 318
297 294 299 297 297 296 294 294 293 296 295 295 296 296 300 301 302 303 304 305 306 307 308 308 307 307 306 307 309 310 311 314 316 315 316 316 316 312 309 306 309 310 313 313
294 296 298 296 294 293 294 293 293 293 294 295 294 293 297 300 300 302 303 304 305 306 307 308 306 305 306 306 307 308 310 313 314 315 315 308 307 303 301 301 303 304 304 306
296 298 295 294 293 294 291 295 294 293 292 289 293 287 294 298 298 300 302 304 305 306 307 307 306 304 305 306 308 308 310 312 313 314 310 310 309 306 306 306 302 297 301 302
293 293 293 292 294 296 293 295 294 293 292 290 292 288 293 294 295 298 302 305 306 307 306 305 305 305 305 306 306 308 309 311 312 313 311 311 311 314 314 309 301 298 294 297
294 296 296 296 294 296 295 294 292 292 291 286 291 289 291 294 296 299 301 303 302 303 303 303 303 303 303 304 305 307 307 309 311 310 311 311 312 311 306 304 300 295 292 290
292 293 295 296 293 294 294 292 285 284 284 284 289 288 292 297 297 300 302 304 301 302 303 302 301 300 300 301 303 305 306 307 309 308 309 310 311 309 307 302 299 296 290 289
288 286 293 296 295 293 292 293 288 283 282 286 286 284 292 298 300 301 301 302 300 300 303 303 302 300 300 301 302 304 304 305 308 306 307 309 310 307 306 301 299 299 295 293
287 287 292 293 296 296 291 288 294 288 281 284 288 293 297 297 298 299 299 300 301 302 302 303 300 299 300 300 302 303 304 305 306 305 306 307 307 305 304 300 297 297 296 290
292 287 290 291 295 294 293 295 287 287 283 281 286 287 290 295 296 299 299 299 301 302 302 301 299 299 299 300 302 303 304 304 305 304 305 304 303 303 303 299 295 292 292 287
295 291 288 291 290 291 290 289 289 290 288 285 283 288 298 298 298 298 300 300 300 301 302 301 299 298 299 300 301 302 304 304 303 303 303 302 300 299 297 295 293 290 287 285
295 292 288 289 292 292 293 292 292 286 284 286 285 288 295 298 297 297 298 299 299 299 301 300 298 298 298 299 300 301 304 303 302 301 301 300 299 295 292 291 289 287 285 284
294 289 285 287 289 290 289 290 292 292 290 287 286 288 294 295 297 298 299 300 299 298 298 298 297 298 298 299 299 300 302 301 300 300 299 298 297 294 291 290 288 286 285 284
297 290 288 287 290 292 287 290 291 290 286 287 288 291 297 295 297 298 300 301 301 300 299 299 299 298 298 298 298 298 298 299 299 297 297 296 296 294 291 290 287 286 284 283
292 285 288 291 293 290 289 290 290 289 290 287 291 292 295 298 298 300 302 302 300 300 298 298 298 299 297 296 296 295 296 297 297 296 296 295 294 293 291 290 289 287 284 283
293 285 286 285 290 290 288 291 290 291 291 292 292 292 299 301 300 298 300 301 301 302 302 300 298 296 295 295 295 294 294 295 295 294 294 294 292 290 288 287 286 285 284 282
289 287 285 282 288 288 284 289 292 292 293 292 289 294 299 298 298 299 300 301 301 301 302 302 300 299 298 297 295 294 294 294 292 293 291 291 289 287 287 286 284 284 283 282
288 286 286 283 285 279 290 293 296 294 295 296 295 297 299 299 300 300 302 301 301 301 300 300 300 300 299 298 295 294 293 291 290 290 289 288 288 287 286 284 283 283 282 281
293 289 284 281 282 286 289 290 292 290 291 297 296 298 299 300 300 300 303 300 301 300 298 298 297 296 295 295 294 290 289 289 288 288 288 287 287 286 285 284 283 283 281 281
290 291 285 283 279 277 287 292 294 295 286 296 297 298 298 299 292 297 296 295 294 293 293 293 292 291 290 291 289 287 287 286 286 287 287 287 286 285 284 284 284 284 283 281
283 284 281 282 280 283 291 289 294 284 286 287 287 291 294 295 299 298 292 291 291 291 290 288 288 287 286 285 286 286 285 285 286 286 285 285 286 284 285 284 284 283 281 279
281 281 282 283 280 277 287 289 285 288 289 288 289 289 288 292 294 293 292 290 289 289 287 285 285 283 283 284 285 284 284 284 284 284 284 283 283 284 284 283 282 281 280 278
279 285 282 284 284 287 288 288 290 289 288 290 287 288 288 288 289 288 290 289 288 286 284 282 283 282 282 283 285 284 282 283 282 281 280 282 282 283 282 282 281 281 281 280
285 287 284 281 285 287 288 291 289 289 289 291 288 285 286 285 286 285 285 286 285 283 282 281 282 282 281 283 283 283 282 282 282 282 281 281 281 281 281 282 282 281 280 280
284 285 283 283 286 287 289 290 292 291 290 288 286 285 285 285 286 284 283 282 283 282 281 282 282 281 280 282 282 283 284 283 282 281 281 282 282 282 281 282 282 282 283 282
284 282 280 280 287 285 285 288 288 286 288 288 288 287 285 285 285 282 282 282 280 282 281 281 279 278 277 277 275 276 280 285 283 281 282 282 282 281 281 281 281 283 283 283
Wind_Speed
2 7 11 16 11 1 2 3 6 6 3 4 12 20 21 16 15 20 20 20 20 21 17 14 15 17 17 17 17 18 17 16 12 10 10 8 9 5 3 3 5 6 8 10
5 12 15 4 8 7 6 10 13 12 3 6 13 21 21 19 22 20 21 22 23 21 18 16 14 16 18 20 19 19 18 17 15 11 10 7 8 4 2 3 5 5 7 10
14 4 7 8 6 11 11 14 11 10 3 8 12 16 16 10 13 17 22 24 24 24 22 17 15 17 17 19 20 20 19 18 16 15 9 6 5 3 3 4 4 5 5 5
11 5 6 7 8 13 15 13 10 8 5 9 2 11 18 14 17 13 18 18 22 18 16 15 14 16 19 19 18 19 19 19 17 18 14 16 9 7 6 6 5 4 5 7
6 10 12 12 9 14 3 6 7 3 6 7 11 9 8 2 8 15 19 18 14 13 13 13 13 15 15 14 17 17 17 18 17 17 16 13 13 10 9 8 9 7 4 4
1 1 5 3 4 6 13 7 4 2 1 11 9 10 10 7 10 7 8 11 2 4 5 7 5 6 8 10 12 14 18 18 18 17 18 17 17 12 9 9 8 6 4 3
4 8 3 3 7 4 4 8 4 5 6 12 6 10 19 15 13 13 14 12 1 1 1 2 4 6 8 10 12 13 16 17 17 17 17 16 15 14 14 11 9 11 6 4
13 11 14 12 14 10 13 10 7 7 6 8 4 12 7 13 13 17 16 16 9 9 9 6 4 4 6 9 11 13 15 16 16 16 16 15 15 10 10 11 8 8 10 9
7 10 1 2 5 12 8 12 9 6 3 5 11 20 14 11 15 12 15 10 10 8 10 8 3 5 6 8 11 12 13 14 15 16 14 15 14 14 12 13 9 8 9 7
5 8 2 2 3 1 9 11 5 5 6 9 11 12 13 6 11 14 13 11 10 8 6 4 3 5 5 7 8 11 13 14 14 15 15 13 14 14 12 12 11 10 9 9
12 7 4 4 11 16 9 11 3 3 5 5 7 12 4 7 6 10 5 4 4 5 7 5 4 5 5 6 8 11 13 15 15 16 15 15 13 12 10 10 10 10 9 9
8 5 13 16 2 3 8 16 20 8 6 6 5 19 6 3 2 4 2 1 0 2 6 5 3 4 5 7 8 11 13 14 15 16 16 16 14 12 11 10 11 10 11 10
3 5 4 3 2 2 8 9 13 16 3 15 9 23 4 2 2 1 3 2 3 2 2 3 5 7 8 9 10 10 11 12 13 14 14 15 15 14 13 13 12 12 12 12
5 6 10 13 2 6 10 16 18 18 11 22 16 34 19 4 6 4 4 4 5 7 9 8 6 7 7 8 9 10 12 12 12 13 14 14 14 15 13 12 12 13 14 14
4 4 5 18 15 4 3 13 22 25 30 18 32 22 26 19 14 17 15 13 10 11 9 12 12 7 9 10 11 11 12 13 13 14 14 14 12 13 11 11 12 12 12 12
10 4 2 8 14 14 13 11 15 23 26 23 30 29 27 17 10 9 15 15 15 15 15 14 11 12 11 11 13 12 13 12 12 14 13 11 10 10 10 10 11 11 11 10
8 4 3 20 12 13 12 30 23 20 20 21 24 32 22 18 17 22 22 20 16 18 17 14 12 8 8 9 9 11 10 10 12 12 10 10 10 11 11 10 10 11 12 11
8 6 4 8 3 10 4 4 18 23 25 20 24 30 26 19 13 16 18 15 19 15 12 10 6 6 5 5 6 6 5 9 9 9 9 9 10 10 11 11 11 11 10 12
17 13 7 7 11 12 15 5 5 10 17 21 25 27 27 24 11 25 17 14 16 8 4 4 4 5 5 6 4 3 5 6 7 8 8 8 9 9 10 11 11 9 9 9
11 15 14 12 10 17 20 11 4 4 15 6 15 23 24 18 9 17 3 2 3 2 2 4 4 4 4 3 3 6 7 7 7 7 8 7 8 9 9 10 10 8 7 7
2 4 15 17 16 11 18 3 7 13 11 1 5 13 14 11 11 2 4 2 1 1 1 1 1 2 3 2 2 3 4 5 4 6 7 7 8 9 9 9 8 8 8 7
10 8 7 8 12 20 6 5 2 7 7 4 6 6 10 10 10 4 2 2 3 3 2 1 3 3 1 2 4 5 4 3 4 6 5 4 5 5 6 8 8 10 11 11
8 7 8 5 3 1 3 3 7 5 8 10 5 4 8 9 6 4 3 2 2 1 2 1 4 5 4 4 2 6 4 5 5 6 6 7 7 7 8 9 9 8 9 8
6 1 5 8 3 3 12 6 7 5 10 13 6 7 0 5 8 7 5 2 3 2 2 2 5 6 5 4 5 6 5 6 7 7 7 7 7 8 7 6 6 6 6 6
8 5 10 14 16 7 8 6 10 10 10 11 8 6 8 7 6 2 4 3 3 4 2 3 4 5 6 6 6 5 4 6 7 7 6 6 5 6 7 5 5 5 6 7
10 17 13 15 12 4 10 10 6 8 8 10 12 11 7 6 5 4 2 2 2 2 6 4 7 8 7 6 6 6 6 3 6 6 5 5 5 5 6 6 5 3 7 11
Wind_Direction
84 210 208 223 218 202 122 221 260 260 168 254 254 267 272 271 264 263 262 258 255 250 246 233 220 211 209 208 205 205 200 200 195 194 194 199 208 193 182 198 181 174 169 164
167 226 226 101 176 200 222 259 260 280 223 224 271 268 276 268 257 255 261 261 257 256 247 232 220 211 207 205 206 205 205 199 199 199 199 209 190 197 171 165 193 185 171 168
214 179 178 177 175 199 227 235 248 263 306 226 291 265 250 263 259 260 258 256 261 255 256 246 223 216 210 210 206 205 202 200 199 198 182 155 148 98 154 199 195 194 166 171
240 183 165 176 209 205 239 212 237 254 280 276 248 288 281 268 265 255 258 247 250 260 256 257 238 219 212 213 207 206 202 200 198 195 189 196 193 183 193 185 179 168 163 176
199 183 195 209 219 185 230 143 180 184 235 314 229 263 242 168 258 251 258 260 267 266 260 254 238 235 223 206 203 204 203 202 198 195 201 197 203 204 195 185 174 172 156 173
305 4 200 211 90 173 139 102 78 90 223 260 239 223 271 201 232 253 252 265 275 266 270 256 241 233 222 198 202 202 202 204 201 200 204 205 205 200 188 182 182 176 167 167
173 209 185 171 111 83 198 160 213 229 198 253 92 212 253 286 249 249 265 268 179 237 211 233 221 201 197 192 195 200 205 208 204 204 205 207 211 198 202 184 184 180 171 187
207 230 184 186 216 176 195 200 203 223 226 278 107 238 259 243 271 246 266 278 281 267 272 256 257 223 199 192 193 196 201 208 201 202 205 204 208 203 203 188 179 193 192 189
188 241 222 239 200 186 169 213 254 271 115 276 253 264 256 233 250 251 245 249 268 253 254 254 206 204 199 194 196 200 200 210 201 206 205 205 199 204 198 190 182 190 190 173
206 260 161 105 180 192 212 143 167 213 222 239 255 264 254 235 239 247 254 250 251 234 236 224 202 193 194 197 199 202 202 205 203 207 207 206 200 202 201 190 188 180 176 162
215 230 130 140 210 189 176 209 210 230 225 242 273 258 173 235 280 268 280 274 288 251 220 195 182 194 190 198 199 205 207 201 198 204 206 205 198 193 187 188 184 181 166 163
200 238 235 219 99 307 242 223 203 204 193 241 281 265 143 85 14 302 219 269 288 222 182 179 187 191 196 206 211 217 216 210 204 201 199 202 194 182 179 183 179 168 169 168
210 207 231 232 205 186 223 202 219 231 33 235 225 260 74 129 240 314 227 272 294 138 211 224 209 219 213 209 211 220 223 226 215 200 199 202 197 188 185 186 180 174 170 168
357 209 220 230 222 147 204 211 206 198 215 240 230 260 251 213 218 216 261 277 271 224 220 234 245 244 241 240 231 224 227 220 211 204 203 204 203 198 188 186 183 180 177 174
165 269 276 274 294 289 247 219 208 210 228 227 251 252 260 251 236 268 286 275 249 256 236 239 240 242 244 233 235 231 234 219 207 208 209 210 197 197 191 188 188 185 183 185
175 239 335 300 276 240 254 259 241 223 232 235 250 254 257 256 259 258 252 259 274 280 271 251 239 224 226 225 230 223 221 214 205 211 210 202 191 184 186 182 181 181 186 185
188 198 202 268 254 235 243 235 233 235 234 232 243 248 267 267 254 253 260 262 266 264 265 271 259 243 237 239 229 230 225 204 201 206 204 196 184 180 181 176 177 185 188 179
232 205 183 264 193 235 255 329 236 231 240 239 250 261 266 270 275 264 257 258 256 260 257 254 264 269 267 269 251 246 196 193 194 206 199 188 187 183 176 174 183 182 180 186
225 225 238 244 242 289 296 217 178 200 246 240 241 253 261 264 275 271 261 235 257 251 231 246 261 276 279 277 271 192 181 189 190 202 203 189 185 183 176 180 183 182 177 186
231 233 234 242 244 254 263 255 223 182 265 186 217 242 253 259 240 262 123 203 233 246 295 293 297 290 296 323 180 164 169 176 193 197 197 183 173 176 183 177 176 170 173 171
213 205 231 240 245 252 266 149 149 213 268 46 315 300 311 271 244 314 147 194 250 261 220 283 328 37 8 45 126 124 144 198 189 161 160 168 172 168 170 156 152 147 143 135
258 252 230 234 233 241 15 89 276 332 317 297 296 311 307 299 300 278 238 190 218 214 162 76 115 90 36 102 110 116 125 122 139 129 136 137 133 133 142 144 144 146 147 153
245 249 265 269 329 120 73 39 260 222 274 294 266 269 300 321 310 311 292 255 217 198 136 103 119 107 51 39 83 119 113 120 106 104 105 119 125 131 137 145 151 156 165 168
231 183 226 352 185 241 283 243 248 238 255 277 264 272 280 303 323 312 320 311 295 291 123 123 119 102 86 52 69 98 105 115 118 118 121 125 131 134 139 145 152 154 171 180
244 173 252 264 266 276 244 217 246 265 258 263 267 238 248 182 227 271 311 321 336 316 245 138 114 106 92 83 76 68 111 126 116 114 121 135 135 140 144 145 164 177 190 193
218 237 237 250 255 221 270 284 198 239 254 246 240 239 208 227 216 156 222 297 289 202 281 138 119 113 85 70 55 29 11 84 120 126 135 138 142 148 148 151 130 162 203 198